Location: Unspecified
(51.6250°N, 0.8230°E)
Time: 11:18:22
(UTC+00:00)

ISS - Pass Details

Date: 01 February 2021
Orbit: 417 x 422 km, 51.6° (Epoch: 06 March)

Event Time Altitude Azimuth Distance (km) Brightness Sun altitude
Rises 19:27:09 0° 283° (WNW) 2,377 1.4 -25.0°
Reaches altitude 10° 19:29:32 10° 267° (W) 1,510 0.1 -25.4°
Enters shadow 19:31:42 21° 229° (SW) 999 -1.4 -25.7°
